EHI
0 0 0 0 0 0 0 0 0 0 0 1 4 7 11 19 33 45 52 56 57 59 60 56 48 40 33 31 28 22 18 16 13 10 8 7 8 7 6 6 7 8 9 9
0 0 0 0 0 0 0 0 0 0 0 2 5 8 12 19 30 41 50 56 59 60 62 59 52 44 37 32 28 23 18 16 14 11 9 8 8 7 8 8 7 8 10 9
0 0 0 0 0 0 0 0 0 0 1 3 7 10 12 18 26 34 45 55 60 64 66 62 55 49 43 38 32 27 22 19 16 15 12 9 8 9 9 9 8 8 9 8
0 0 0 0 0 0 0 0 1 1 2 5 9 12 14 18 23 29 40 52 59 63 66 63 57 53 50 44 38 34 30 24 20 19 16 12 10 11 11 9 8 7 7 7
0 0 0 0 0 0 0 0 1 2 4 8 10 11 15 22 26 32 41 52 58 61 63 62 58 56 54 48 43 40 36 29 24 21 19 16 14 14 12 10 8 7 6 7
0 0 0 0 1 1 0 1 3 5 8 12 12 14 22 32 37 41 49 57 60 60 61 61 58 57 55 51 44 39 35 31 27 24 22 20 18 17 14 10 7 6 6 6
0 0 1 1 1 3 6 9 11 14 18 20 23 29 37 43 47 51 55 58 59 58 59 59 57 55 53 49 42 35 31 30 28 25 21 20 19 17 14 11 9 7 5 3
0 0 1 4 6 11 19 26 27 27 29 32 38 43 44 46 49 49 49 52 54 52 51 51 51 50 47 42 36 30 27 26 25 22 18 17 17 15 12 11 10 8 5 2
1 2 3 7 13 20 29 36 39 37 36 38 42 43 40 41 43 42 41 44 47 44 40 39 39 39 37 31 25 22 21 20 19 17 15 14 14 13 11 9 8 6 3 1
3 4 6 9 15 21 27 34 39 39 36 35 37 36 33 35 39 39 37 37 38 35 30 27 27 27 24 19 16 15 15 15 14 12 11 11 11 9 8 6 5 4 3 2
4 5 7 11 15 20 23 27 30 32 31 29 29 29 29 31 33 31 27 24 24 22 19 16 17 16 13 10 11 12 12 11 11 9 7 6 6 5 4 3 3 3 3 3
5 6 9 13 18 20 21 22 24 26 27 25 24 24 25 24 22 18 13 11 11 10 10 10 10 9 7 6 7 8 8 8 8 7 4 4 5 4 2 1 1 1 1 2
5 6 9 14 17 19 19 20 21 22 22 21 19 18 18 16 13 9 7 6 6 6 7 7 7 5 4 4 4 5 4 4 5 5 4 4 5 4 2 1 0 0 0 0
3 4 7 11 15 17 16 16 15 14 14 13 13 12 12 11 9 7 6 6 6 6 6 6 5 3 1 2 3 3 2 2 3 4 4 3 4 4 3 1 1 0 0 0
1 2 4 7 10 12 11 8 6 6 7 8 8 8 8 8 7 7 6 6 6 6 6 5 4 2 1 1 2 2 1 0 1 2 3 3 3 3 3 2 1 0 0 0
1 1 2 4 5 5 5 3 2 2 3 5 5 5 5 6 7 6 6 6 6 6 6 4 2 1 0 0 1 1 0 0 0 1 1 2 2 2 2 2 1 0 0 0
2 1 1 1 1 2 2 2 1 1 1 1 2 2 2 4 5 5 5 6 6 6 5 3 1 0 0 0 0 0 0 0 0 0 0 1 1 1 1 1 0 0 0 0
1 1 0 0 0 1 1 1 0 0 0 0 0 0 0 2 3 4 4 4 4 4 3 2 1 0 0 0 0 0 0 0 0 0 0 0 0 0 0 0 0 0 0 0
0 0 0 0 0 0 0 0 0 0 0 1 1 1 0 2 3 3 3 3 2 2 1 1 0 0 0 0 0 0 0 0 0 0 0 0 0 0 0 0 0 0 0 0
0 0 0 0 0 0 0 0 0 1 1 1 2 1 0 1 2 2 2 1 1 1 0 0 0 0 0 0 0 0 0 0 0 0 0 0 0 0 0 0 0 0 0 0
0 0 0 0 0 0 0 0 1 2 2 2 2 1 0 0 0 0 0 0 0 0 0 0 0 0 0 0 0 0 0 0 0 0 0 0 0 0 0 0 0 0 0 0
1 0 0 0 0 0 0 1 2 3 3 3 2 0 0 0 0 0 0 0 0 0 0 0 0 0 0 0 0 0 0 0 0 0 0 0 0 0 0 0 0 0 0 0
1 0 0 0 0 0 0 1 3 4 4 3 2 1 1 0 0 0 0 0 0 0 0 0 0 0 0 0 0 0 0 0 0 0 0 0 0 0 0 0 0 0 0 0
1 0 0 0 0 0 1 1 3 4 4 3 3 2 1 1 0 0 0 0 0 0 0 0 0 0 0 0 0 0 0 0 0 0 0 0 0 0 0 0 0 0 0 0
0 0 0 0 0 0 1 2 3 3 3 3 3 3 2 1 1 0 0 0 0 0 0 0 0 0 0 0 0 0 0 0 0 0 0 0 0 0 0 0 0 0 0 0
0 0 0 0 0 0 1 1 1 2 2 2 3 2 1 1 0 0 0 0 0 0 0 0 0 0 0 0 0 0 0 0 0 0 0 0 0 0 0 0 0 0 0 0
0 0 0 0 0 0 0 0 0 1 2 2 2 2 1 0 0 0 0 0 0 0 0 0 0 0 0 0 0 0 0 0 0 0 0 0 0 0 0 0 0 0 0 0
Wind_Speed
13 7 7 12 14 16 17 15 13 10 11 7 3 3 3 5 7 8 9 10 10 10 9 9 9 9 8 7 6 6 6 6 5 5 5 4 4 4 4 4 4 4 4 4
12 11 11 12 12 14 15 14 14 12 9 4 2 2 4 5 7 8 9 9 10 10 10 11 10 10 9 8 7 7 6 6 5 5 5 4 4 4 4 3 3 3 3 3
12 11 11 15 15 14 14 12 12 12 7 3 3 3 3 5 6 7 8 9 9 9 9 10 10 10 9 9 8 7 6 6 6 6 5 5 4 4 4 3 3 3 2 2
9 8 15 10 6 12 13 11 10 7 4 3 2 1 1 3 4 6 6 8 8 8 9 9 9 10 9 9 8 8 7 6 6 6 5 5 4 4 3 3 3 2 2 2
10 14 14 6 5 9 12 11 9 8 5 2 1 3 4 2 2 3 4 5 6 7 8 9 9 10 10 9 9 8 7 6 6 5 6 5 5 5 4 3 3 3 2 3
10 14 15 8 7 4 8 10 5 5 4 3 4 7 3 4 2 2 3 4 5 6 8 8 8 9 10 9 8 7 7 6 5 5 5 5 5 4 4 4 3 3 3 2
14 13 10 3 5 7 11 4 2 3 2 3 2 3 4 3 3 4 5 5 6 6 6 6 7 8 8 8 7 6 6 5 5 5 5 5 4 4 4 4 4 4 4 3
14 15 10 5 6 5 2 4 2 1 1 1 2 3 4 5 5 5 6 6 6 6 6 5 6 7 7 6 5 6 6 5 5 4 4 4 4 4 4 4 5 4 4 4
8 5 3 2 1 3 3 2 2 1 1 2 3 4 4 5 5 5 6 6 6 7 7 5 5 5 6 5 4 5 6 5 4 4 3 4 4 4 4 4 4 4 4 3
4 3 2 1 1 1 1 1 1 1 1 3 4 5 5 5 5 5 5 5 5 6 6 5 5 5 5 4 4 5 5 5 4 4 4 3 2 3 3 4 4 4 4 4
6 3 3 3 0 1 1 1 2 2 2 3 4 5 5 5 5 5 4 4 5 5 5 5 4 5 4 4 4 4 4 4 4 4 4 3 2 1 1 1 1 2 3 4
3 1 2 0 1 0 1 2 2 3 4 4 5 5 5 5 5 4 4 5 5 5 5 4 4 4 3 2 3 4 4 4 3 3 3 3 3 3 7 5 4 3 3 1
3 4 3 0 1 1 1 1 2 3 4 5 5 5 6 5 5 5 5 5 5 5 5 4 4 4 3 2 2 3 3 2 2 2 3 3 3 3 3 4 6 6 4 4
2 2 2 1 0 0 1 2 3 4 4 5 5 5 5 5 5 5 5 5 5 5 4 4 4 4 2 2 2 2 2 2 2 2 2 2 3 3 3 4 4 3 4 5
2 3 3 1 2 2 2 3 4 4 5 5 5 4 4 4 5 5 5 5 5 4 4 4 4 3 2 1 2 2 2 1 1 1 2 2 2 2 3 4 4 4 4 4
4 3 3 3 4 3 4 4 4 4 4 4 4 3 3 4 5 5 5 4 4 4 3 3 3 3 2 2 2 2 2 3 1 1 2 2 2 2 3 3 4 4 4 5
4 4 4 3 4 4 4 3 3 3 4 4 4 4 4 4 5 5 5 4 4 4 3 3 3 2 2 2 1 1 2 3 3 2 2 2 2 3 3 4 4 4 4 4
6 6 5 4 4 4 4 4 3 4 4 4 5 5 5 4 4 5 5 5 5 5 4 3 3 2 2 2 1 1 2 2 2 2 2 2 2 3 3 3 4 5 4 6
6 6 6 5 4 3 3 3 3 3 4 5 5 5 4 4 5 5 5 5 4 4 4 4 2 2 3 2 1 2 2 3 3 3 3 4 3 3 3 3 3 4 4 5
5 6 5 5 5 4 4 4 4 4 4 5 6 6 6 5 5 5 5 4 3 3 4 3 3 3 3 3 1 2 3 3 3 3 3 3 3 3 3 3 3 3 4 4
2 2 2 3 4 4 4 5 5 5 5 5 5 6 6 6 6 5 4 4 4 4 4 3 2 2 3 2 2 2 3 3 3 3 3 3 3 3 3 3 3 3 3 4
1 2 2 2 4 4 4 4 5 6 6 6 6 6 7 7 6 5 4 4 5 3 2 3 3 4 2 1 2 3 3 3 3 3 3 3 3 3 4 4 4 4 4 4
2 3 3 4 5 5 5 5 6 6 7 6 6 6 6 5 4 4 5 4 5 3 2 4 5 4 2 2 2 3 3 3 3 3 3 3 3 3 3 4 4 4 4 4
3 4 4 5 6 6 6 6 6 6 7 6 6 5 5 4 3 3 5 6 4 3 2 5 4 3 5 2 2 2 2 2 2 2 2 3 3 3 3 3 4 4 4 6
4 5 6 6 6 6 6 7 7 7 7 6 6 5 3 3 3 3 4 5 5 3 3 5 5 4 4 1 1 1 2 1 1 1 2 2 2 2 3 3 3 4 4 4
5 5 5 5 5 5 4 4 5 5 5 5 5 4 4 3 3 3 3 4 4 2 2 3 4 4 3 1 1 2 2 2 3 3 3 2 3 3 3 3 4 3 3 4
7 6 5 5 5 4 4 4 4 4 5 5 5 4 4 3 3 2 2 3 3 2 2 2 2 2 1 1 1 1 2 2 2 3 3 3 3 3 3 4 4 3 4 4
Wind_Direction
250 253 220 213 209 207 219 237 245 240 244 248 237 225 199 183 177 173 173 176 179 179 172 172 172 172 174 172 173 176 180 180 184 182 180 181 180 182 187 197 203 205 209 209
232 231 231 234 223 214 221 233 242 251 249 252 230 208 192 186 185 183 181 181 179 179 175 177 176 174 171 171 169 174 179 177 175 176 173 172 172 171 176 185 191 188 196 201
228 215 218 229 226 220 218 224 234 237 239 226 223 215 204 195 196 194 188 185 182 178 175 174 176 172 171 169 168 172 174 173 172 176 175 173 174 174 177 179 176 177 178 188
231 202 228 229 213 222 223 224 230 246 255 250 264 256 198 205 207 199 192 185 179 175 171 169 169 168 167 165 169 171 172 174 175 176 174 171 172 169 171 173 173 171 165 168
231 226 230 198 192 210 216 223 223 232 236 231 194 201 168 129 185 194 186 177 169 170 165 160 163 164 163 164 167 170 172 173 173 177 176 175 176 173 173 173 171 166 154 153
230 240 233 212 163 201 223 219 197 215 227 232 230 244 127 80 91 124 130 134 143 151 150 153 157 161 164 165 166 171 170 171 173 176 175 177 175 173 168 167 166 158 137 134
230 235 239 114 135 186 217 206 125 194 219 230 237 351 61 93 100 111 118 125 133 136 140 144 150 157 162 161 164 161 159 161 164 168 171 168 163 165 165 166 162 157 144 138
226 233 221 131 182 214 24 45 59 143 173 165 103 94 96 102 107 114 118 121 124 123 121 126 143 152 152 150 145 145 149 152 152 156 161 155 156 158 161 164 162 159 151 143
228 230 83 103 75 28 358 5 21 35 90 147 145 126 112 111 109 108 111 111 113 118 117 116 129 142 137 133 141 147 142 143 145 149 157 161 164 163 166 176 182 174 169 165
226 178 146 121 92 6 350 346 6 37 130 155 144 131 123 117 109 103 103 110 113 114 114 109 108 108 118 132 146 150 148 152 158 161 162 154 165 179 185 188 189 182 180 180
227 204 199 191 182 47 60 77 87 92 106 123 129 127 120 111 104 99 97 96 99 102 108 110 111 111 125 136 150 153 154 163 168 168 163 152 139 60 259 166 216 210 196 184
236 79 277 100 44 258 146 122 109 109 103 107 124 125 118 108 102 105 107 105 102 98 98 100 102 102 104 121 148 158 167 174 175 170 168 170 155 121 52 53 71 75 64 97
321 329 334 353 256 242 179 124 121 120 118 117 120 123 119 114 111 109 110 109 106 106 105 102 100 97 94 111 140 157 174 178 181 178 174 177 176 170 149 90 70 71 82 97
296 284 244 227 258 171 143 133 129 121 116 115 116 118 119 120 118 116 111 109 107 108 107 108 102 88 73 97 129 143 164 154 188 181 181 186 188 186 175 165 151 120 90 102
265 275 270 245 193 173 158 153 147 133 120 113 111 117 124 128 123 114 112 111 113 113 105 100 94 82 67 90 122 142 156 151 168 174 174 175 175 175 164 158 149 139 132 118
280 268 246 217 202 189 180 170 160 141 125 116 108 104 106 109 108 107 109 115 117 105 95 92 86 77 73 82 103 121 117 101 125 161 150 155 162 161 154 152 152 150 153 148
253 236 227 220 212 203 198 195 180 158 144 137 132 129 131 130 124 122 120 116 107 99 93 84 77 75 88 105 125 122 117 122 137 145 141 149 150 153 151 152 157 158 157 146
263 258 256 249 240 217 202 191 175 162 153 147 142 139 146 145 136 128 127 126 116 103 91 85 81 90 101 105 118 124 132 133 138 133 133 132 133 141 146 152 158 160 151 144
263 251 248 243 240 231 207 187 177 163 149 149 144 135 130 125 124 127 132 132 126 115 100 94 96 122 111 103 121 133 125 127 125 121 122 130 142 137 138 144 150 153 150 150
261 253 245 228 217 208 196 177 164 152 146 144 138 132 130 130 134 135 134 122 96 87 109 111 134 118 116 118 186 128 125 129 128 126 131 140 139 136 136 141 147 154 159 160
235 226 222 211 196 185 175 168 158 146 141 143 141 137 136 136 137 137 138 124 108 103 115 134 140 118 114 118 181 124 122 121 125 130 139 140 138 138 142 150 158 162 166 171
148 136 150 157 157 148 148 150 149 147 142 140 138 135 136 138 136 130 117 108 119 129 150 137 118 94 83 244 142 123 122 125 131 136 143 146 148 153 157 162 170 179 184 187
101 105 116 129 135 136 136 137 138 135 133 134 136 138 134 128 134 139 134 129 134 151 167 108 100 121 220 224 138 129 128 134 138 144 150 160 164 168 171 180 188 191 191 192
93 101 107 115 122 123 121 118 118 119 120 120 122 123 127 130 128 117 110 122 127 149 128 106 128 173 237 220 162 146 142 152 167 172 172 175 177 183 187 195 202 201 200 204
94 98 107 117 120 115 113 115 117 119 116 113 113 115 117 109 112 110 117 131 140 178 146 139 166 212 232 215 194 184 188 192 208 229 211 214 219 216 219 221 221 218 215 217
89 90 90 90 93 104 113 117 118 118 117 115 113 115 113 109 108 114 134 146 152 173 171 155 170 205 219 224 237 243 243 203 212 234 245 249 248 247 244 241 232 230 223 224
92 91 92 92 94 99 107 112 115 117 115 113 113 111 109 113 119 125 137 147 157 164 165 175 188 202 221 239 249 265 267 263 261 260 253 249 254 256 247 239 244 242 245 242